Location: Hartford
(41.7640°N, 72.6860°W)
Time: 17:21:30
(UTC-04:00)

Amateur Radio Satellites - All Passes

Search period start: 05 May 2015 16:51
Search period end: 06 May 2015 16:51
Location: Hartford, 41.7640°N, 72.6860°W

Satellite Date Start Highest point End Downlink Frequencies (MHz)
Time Altitude Azimuth
PCSat 05 May 16:54:22 16:58:03 18° 254° (WSW) 17:01:30 145.827
SO-50 05 May 17:04:11 17:08:35 31° 46° (NE) 17:12:58 436.795
Cosmos 2499 05 May 17:07:09 17:15:22 48° 90° (E) 17:23:18 435.465 / 435.565
VERMONT LUNAR 05 May 17:15:18 17:17:56 21° 206° (SSW) 17:20:34 437.305
CUTE-I 05 May 17:27:53 17:32:27 31° 67° (ENE) 17:37:07 437.470
RS-15 05 May 17:28:53 17:37:02 22° 356° (N) 17:45:23 29.354- 29.394
Cubesat XI-IV 05 May 17:40:33 17:45:27 40° 69° (ENE) 17:50:26 437.490
PHONESAT 2.4 05 May 18:00:11 18:03:21 29° 203° (SSW) 18:06:29 2401.200-2431.200
MOZHAYETS 4 05 May 18:05:34 18:10:00 48° 287° (WNW) 18:14:21
JAS-2 05 May 18:07:55 18:11:14 13° 276° (W) 18:13:53 435.910
GONETS M04 05 May 18:20:51 18:25:54 15° 304° (NW) 18:30:26
CUBESAT XI-V 05 May 18:36:27 18:40:26 29° 95° (E) 18:44:30 437.345
SO-50 05 May 18:44:36 18:49:14 39° 244° (WSW) 18:53:45 436.795
Cosmos 2499 05 May 19:00:37 19:08:43 39° 288° (WNW) 19:16:18 435.465 / 435.565
CUTE-I 05 May 19:07:39 19:12:29 34° 264° (W) 19:17:17 437.470
M-CUBED/EXP-1 PRIME 05 May 19:09:07 19:12:23 28° 100° (E) 19:15:29 437.505
PRISM 05 May 19:10:34 19:14:16 33° 97° (E) 19:18:00 437.425
Cubesat XI-IV 05 May 19:21:16 19:25:43 26° 266° (W) 19:30:05 437.490
CANX-2 05 May 19:23:52 19:25:27 12° 64° (ENE) 19:27:15 2200.000
CUTE 1.7 + AOD 2 05 May 19:30:55 19:32:48 13° 64° (ENE) 19:34:55 437.475
AUBIESAT-1 05 May 19:40:25 19:44:10 60° 105° (ESE) 19:47:38 437.475
O/OREOS (USA 219) 05 May 19:41:10 19:44:53 26° 104° (ESE) 19:48:42 437.305
RS-15 05 May 19:44:27 19:54:18 33° 30° (NNE) 20:04:42 29.354- 29.394
HO-68 05 May 19:44:45 19:51:14 39° 64° (ENE) 19:57:49 435.675
COMPASS 1 05 May 19:48:08 19:50:04 13° 65° (ENE) 19:52:12 437.405
STRAND 1 05 May 19:56:58 20:02:07 81° 105° (ESE) 20:07:14 437.568
BRITE-PL 05 May 20:04:33 20:08:49 66° 75° (ENE) 20:13:26 437.365/2234.400
Cosmos 2491 05 May 20:06:46 20:10:32 14° 77° (ENE) 20:14:57 435.465 / 435.565
YUBILEINY 05 May 20:07:44 20:15:25 34° 69° (ENE) 20:23:13 435.215
CUBESAT XI-V 05 May 20:13:51 20:17:51 29° 291° (WNW) 20:21:47 437.345
DOVE 4 05 May 20:14:51 20:18:58 36° 70° (ENE) 20:23:22 437.250
AAUSAT CUBESAT 2 05 May 20:19:32 20:22:54 24° 69° (ENE) 20:26:22 437.432
SEEDS 05 May 20:29:08 20:33:11 44° 73° (ENE) 20:37:17 437.485
GOMX 1 05 May 20:32:22 20:36:46 83° 76° (ENE) 20:41:31 467.674
M-CUBED/EXP-1 PRIME 05 May 20:44:14 20:47:09 20° 299° (WNW) 20:49:49 437.505
PRISM 05 May 20:46:27 20:49:33 21° 293° (WNW) 20:52:34 437.425
CANX-2 05 May 20:56:36 21:00:54 68° 259° (W) 21:05:12 2200.000
CUTE 1.7 + AOD 2 05 May 21:04:00 21:08:17 62° 260° (W) 21:12:34 437.475
UKube-1 05 May 21:04:20 21:05:47 12° 62° (ENE) 21:07:27 .
CINEMA 3 05 May 21:12:50 21:17:22 74° 75° (ENE) 21:22:10 145.822/145.860
FUNcube-1 05 May 21:15:06 21:18:49 27° 68° (ENE) 21:22:40 145.935
AUBIESAT-1 05 May 21:17:23 21:18:27 11° 303° (WNW) 21:19:19 437.475
Oscar 11 05 May 21:17:30 21:21:42 50° 73° (ENE) 21:25:56 145.826/435.025
O/OREOS (USA 219) 05 May 21:20:06 21:24:13 32° 300° (WNW) 21:28:18 437.305
COMPASS 1 05 May 21:21:08 21:25:19 59° 260° (W) 21:29:31 437.405
HO-68 05 May 21:32:08 21:38:55 43° 262° (W) 21:45:41 435.675
CUBEBUG 2 05 May 21:32:58 21:37:27 64° 74° (ENE) 21:42:07 437.445
UWE-3 05 May 21:35:12 21:39:36 55° 74° (ENE) 21:44:09 435.000/436.395/437.385
STRAND 1 05 May 21:38:06 21:40:43 14° 299° (WNW) 21:43:05 437.568
ZACube-1 05 May 21:44:29 21:48:51 55° 74° (ENE) 21:53:20 437.345
HUMSAT D 05 May 21:44:31 21:48:04 26° 69° (ENE) 21:51:42 437.325/437.525
BRITE-PL 05 May 21:46:45 21:48:06 11° 275° (W) 21:49:12 437.365/2234.400
50 SAT 05 May 21:48:21 21:50:53 17° 67° (ENE) 21:53:34 437.505
DELFI C3 05 May 21:50:52 21:54:57 88° 77° (ENE) 21:59:02 145.870
DOVE 4 05 May 21:53:20 21:56:54 22° 269° (W) 22:00:33 437.250
AAUSAT CUBESAT 2 05 May 21:54:44 21:58:26 29° 265° (W) 22:02:06 437.432
RS-15 05 May 21:57:00 22:08:39 86° 57° (ENE) 22:20:47 29.354- 29.394
Cosmos 2491 05 May 21:57:23 22:06:04 77° 95° (E) 22:14:53 435.465 / 435.565
CUBEBUG 1 05 May 22:01:42 22:03:03 12° 63° (ENE) 22:04:37 437.445
YUBILEINY 05 May 22:04:15 22:12:40 53° 269° (W) 22:20:57 435.215
SEEDS 05 May 22:06:30 22:09:16 16° 270° (W) 22:11:52 437.485
DX 1 05 May 22:10:23 22:14:39 62° 73° (ENE) 22:18:57 434.975-435.025
VELOX 1 05 May 22:26:31 22:30:39 42° 72° (ENE) 22:34:51 145.980
ESTCUBE 1 05 May 22:31:41 22:35:28 28° 69° (ENE) 22:39:19 437.505/2401.250
TIGRISAT 05 May 22:34:43 22:38:02 20° 91° (E) 22:41:26 435.000
UKube-1 05 May 22:37:07 22:41:25 71° 258° (WSW) 22:45:44 .
UNISAT 6 05 May 22:43:54 22:47:43 25° 93° (E) 22:51:31 437.425
AISAT 05 May 22:48:41 22:53:04 78° 76° (ENE) 22:57:31 437.250
FUNcube-1 05 May 22:51:06 22:55:04 30° 266° (W) 22:59:03 145.935
QB50P1 05 May 22:51:43 22:53:46 13° 89° (E) 22:56:01 145.935-145.965
CINEMA 3 05 May 22:53:50 22:55:18 11° 275° (W) 22:56:30 145.822/145.860
Oscar 11 05 May 22:55:38 22:58:13 15° 270° (W) 23:00:38 145.826/435.025
AIST 1 05 May 22:57:24 23:00:59 27° 91° (E) 23:04:38
BUGSAT 1 05 May 23:04:11 23:05:49 12° 89° (E) 23:07:42 437.445
CUBEBUG 2 05 May 23:12:30 23:14:42 13° 273° (W) 23:16:41 437.445
Cosmos 2504 05 May 23:13:24 23:20:47 47° 74° (ENE) 23:27:47 435.465 / 435.565
UWE-3 05 May 23:13:55 23:16:34 15° 272° (W) 23:19:04 435.000/436.395/437.385
HUMSAT D 05 May 23:20:01 23:23:45 28° 265° (W) 23:27:29 437.325/437.525
QB50P2 05 May 23:20:44 23:24:27 29° 95° (E) 23:28:14 145.880/145.840
50 SAT 05 May 23:21:35 23:25:23 40° 262° (W) 23:29:14 437.505
ZACube-1 05 May 23:23:04 23:25:39 14° 272° (W) 23:28:03 437.345
ANTELSAT 05 May 23:25:51 23:30:31 71° 101° (ESE) 23:35:02 437.575/2403.000
NANOSAT C BR1 05 May 23:30:28 23:34:25 35° 97° (E) 23:38:24 145.865
CUBEBUG 1 05 May 23:34:35 23:38:53 72° 258° (WSW) 23:43:14 437.445
POPSAT HIP 1 05 May 23:38:55 23:43:04 44° 98° (E) 23:47:12 437.405
BEESAT 3 05 May 23:40:22 23:44:04 35° 116° (ESE) 23:47:52 437.485
DX 1 05 May 23:49:42 23:51:24 12° 271° (W) 23:52:51 434.975-435.025
BEESAT 2 05 May 23:56:33 00:00:26 43° 117° (ESE) 00:04:24 435.950
Cosmos 2491 05 May 23:57:10 00:04:03 24° 297° (WNW) 00:10:40 435.465 / 435.565
DUCHIFAT 1 06 May 00:00:30 00:04:50 77° 103° (ESE) 00:09:07 145.980
VELOX 1 06 May 00:04:26 00:07:28 18° 269° (W) 00:10:23 145.980
SWISSCUBE 06 May 00:08:03 00:09:32 12° 61° (ENE) 00:11:16 437.505
ESTCUBE 1 06 May 00:08:24 00:12:18 28° 265° (W) 00:16:09 437.505/2401.250
SPROUT 06 May 00:10:35 00:14:51 75° 75° (ENE) 00:19:10 437.525
TIGRISAT 06 May 00:10:37 00:15:01 41° 289° (WNW) 00:19:17 435.000
RS-15 06 May 00:10:51 00:20:03 26° 256° (WSW) 00:28:57 29.354- 29.394
POLYITAN 1 06 May 00:13:56 00:18:17 72° 284° (WNW) 00:22:34 437.675
UNISAT 6 06 May 00:20:23 00:24:33 32° 291° (WNW) 00:28:35 437.425
QB50P1 06 May 00:25:49 00:30:02 54° 286° (WNW) 00:34:13 145.935-145.965
AIST 2 06 May 00:30:26 00:34:10 31° 115° (ESE) 00:37:59 435.215
TISAT 1 06 May 00:31:46 00:35:58 81° 257° (WSW) 00:40:13 437.305
AIST 1 06 May 00:35:10 00:38:39 24° 287° (WNW) 00:42:05
GONETS M04 06 May 00:35:23 00:37:36 11° 51° (NE) 00:40:31
BUGSAT 1 06 May 00:37:34 00:41:43 57° 286° (WNW) 00:45:53 437.445
QB50P2 06 May 00:56:42 01:00:17 25° 291° (WNW) 01:03:47 145.880/145.840
ANTELSAT 06 May 01:04:28 01:06:44 13° 298° (WNW) 01:08:47 437.575/2403.000
NANOSAT C BR1 06 May 01:06:47 01:10:04 21° 293° (WNW) 01:13:15 145.865
Cosmos 2504 06 May 01:07:19 01:13:57 32° 274° (W) 01:20:07 435.465 / 435.565
ITUPSAT 1 06 May 01:14:26 01:18:58 46° 71° (ENE) 01:23:33 437.325
POPSAT HIP 1 06 May 01:15:44 01:18:39 17° 294° (WNW) 01:21:25 437.405
BEESAT 3 06 May 01:18:45 01:22:11 24° 314° (NW) 01:25:34 437.485
CUSAT 1 06 May 01:31:46 01:38:05 25° 62° (ENE) 01:44:38 437.405
BEESAT 2 06 May 01:35:31 01:38:45 21° 316° (NW) 01:41:57 435.950
BEESAT 06 May 01:37:30 01:42:16 80° 75° (ENE) 01:47:04 436.000
DUCHIFAT 1 06 May 01:38:58 01:40:05 11° 297° (WNW) 01:40:59 145.980
SWISSCUBE 06 May 01:42:00 01:46:47 85° 259° (W) 01:51:35 437.505
KKS-1 06 May 01:42:10 01:44:54 17° 65° (ENE) 01:47:49 437.445
DANDE 06 May 01:44:20 01:50:44 25° 63° (ENE) 01:57:34 436.750
Oscar 19 06 May 02:07:23 02:12:28 54° 99° (E) 02:17:33 437.125/150
STARS 06 May 02:08:18 02:11:23 20° 66° (ENE) 02:14:38 437.465
AIST 2 06 May 02:08:59 02:12:45 29° 313° (NW) 02:16:31 435.215
GONETS M04 06 May 02:28:18 02:37:00 58° 76° (ENE) 02:45:39
ITUPSAT 1 06 May 02:53:40 02:57:08 19° 268° (W) 03:00:29 437.325
Cosmos 2499 06 May 03:00:32 03:04:00 14° 57° (ENE) 03:07:49 435.465 / 435.565
Gurwin Techsat 1B 06 May 03:05:33 03:10:44 51° 99° (E) 03:15:54 435.225
ITAMSAT 1 06 May 03:07:38 03:12:47 59° 101° (ESE) 03:17:54 435.822/435.867
CUSAT 1 06 May 03:13:28 03:21:48 82° 262° (W) 03:29:48 437.405
KKS-1 06 May 03:16:52 03:21:12 50° 261° (W) 03:25:33 437.445
BEESAT 06 May 03:19:37 03:20:49 11° 273° (W) 03:21:41 436.000
DANDE 06 May 03:26:33 03:34:57 83° 261° (W) 03:43:23 436.750
JAS-2 06 May 03:30:12 03:32:33 13° 84° (E) 03:35:09 435.910
MOZHAYETS 4 06 May 03:32:08 03:35:07 18° 65° (ENE) 03:38:15
STARS 06 May 03:43:25 03:47:35 41° 262° (W) 03:51:47 437.465
Oscar 19 06 May 03:47:39 03:51:28 20° 296° (WNW) 03:55:07 437.125/150
HORYU 2 06 May 03:55:37 03:59:28 29° 95° (E) 04:03:23 437.375
GONETS M04 06 May 04:25:55 04:33:25 31° 276° (W) 04:40:38
AO-7 06 May 04:29:49 04:37:44 46° 99° (E) 04:45:43 29.400- 29.500
Gurwin Techsat 1B 06 May 04:46:21 04:50:23 22° 296° (WNW) 04:54:17 435.225
ITAMSAT 1 06 May 04:48:16 04:51:52 19° 297° (WNW) 04:55:18 435.822/435.867
Cosmos 2499 06 May 04:51:16 04:58:46 81° 81° (E) 05:05:52 435.465 / 435.565
AUBIESAT-1 06 May 04:56:19 04:57:50 12° 57° (ENE) 04:59:33 437.475
CUSAT 1 06 May 04:58:17 05:03:31 18° 279° (W) 05:08:13 437.405
MOZHAYETS 4 06 May 05:07:30 05:12:00 50° 261° (W) 05:16:31
DANDE 06 May 05:11:47 05:17:18 19° 278° (W) 05:22:24 436.750
JAS-2 06 May 05:12:52 05:18:41 76° 286° (WNW) 05:23:58 435.910
HORYU 2 06 May 05:32:15 05:36:04 27° 292° (WNW) 05:39:48 437.375
STRAND 1 06 May 05:36:42 05:39:33 16° 62° (ENE) 05:42:36 437.568
CUBESAT XI-V 06 May 05:40:16 05:44:12 29° 69° (ENE) 05:48:13 437.345
CUTE-I 06 May 05:46:53 05:48:10 11° 86° (E) 05:49:49 437.470
O/OREOS (USA 219) 06 May 05:50:05 05:54:27 51° 63° (ENE) 05:58:49 437.305
PCSat 06 May 05:51:28 05:56:43 56° 115° (ESE) 06:02:03 145.827
M-CUBED/EXP-1 PRIME 06 May 05:56:19 06:00:55 49° 68° (ENE) 06:05:25 437.505
Cubesat XI-IV 06 May 05:58:44 06:01:40 15° 89° (E) 06:04:52 437.490
PRISM 06 May 06:01:15 06:04:40 26° 69° (ENE) 06:08:09 437.425
AO-7 06 May 06:22:48 06:30:30 42° 298° (WNW) 06:38:06 29.400- 29.500
AUBIESAT-1 06 May 06:27:16 06:32:03 88° 70° (ENE) 06:36:41 437.475
Cosmos 2499 06 May 06:46:29 06:50:58 17° 280° (W) 06:54:56 435.465 / 435.565
JAS-2 06 May 07:01:09 07:02:44 11° 306° (NW) 07:03:58 435.910
STRAND 1 06 May 07:13:10 07:18:15 70° 259° (WSW) 07:23:21 437.568
CUBESAT XI-V 06 May 07:17:40 07:21:39 28° 266° (W) 07:25:34 437.345
CUTE-I 06 May 07:23:43 07:29:05 89° 291° (WNW) 07:34:27 437.470
O/OREOS (USA 219) 06 May 07:30:51 07:33:30 15° 259° (W) 07:35:56 437.305
M-CUBED/EXP-1 PRIME 06 May 07:32:26 07:35:58 20° 263° (W) 07:39:18 437.505
PCSat 06 May 07:36:05 07:40:32 25° 314° (NW) 07:44:54 145.827
PRISM 06 May 07:36:36 07:40:06 25° 265° (W) 07:43:32 437.425
Cubesat XI-IV 06 May 07:37:03 07:42:22 68° 287° (WNW) 07:47:40 437.490
BEESAT 3 06 May 07:58:54 08:02:22 26° 47° (NE) 08:05:50 437.485
AUBIESAT-1 06 May 08:06:39 08:07:24 10° 268° (W) 08:07:48 437.475
Cosmos 2491 06 May 08:07:41 08:15:45 39° 70° (ENE) 08:23:56 435.465 / 435.565
BRITE-PL 06 May 08:08:35 08:13:03 26° 92° (E) 08:17:46 437.365/2234.400
DOVE 4 06 May 08:15:18 08:17:12 12° 85° (E) 08:19:26 437.250
BEESAT 2 06 May 08:15:39 08:19:20 31° 48° (NE) 08:23:01 435.950
ISS 06 May 08:18:00 08:21:14 89° 112° (ESE) 08:24:30 145.825
GOMX 1 06 May 08:33:43 08:38:19 28° 93° (E) 08:43:05 467.674
CANX-2 06 May 08:42:33 08:45:40 20° 92° (E) 08:48:52 2200.000
CUTE 1.7 + AOD 2 06 May 08:49:43 08:52:58 22° 93° (E) 08:56:18 437.475
AIST 2 06 May 08:51:50 08:55:22 25° 46° (NE) 08:58:52 435.215
SO-50 06 May 08:58:39 09:03:15 67° 120° (ESE) 09:08:03 436.795
HO-68 06 May 08:59:10 09:05:43 38° 96° (E) 09:12:19 435.675
COMPASS 1 06 May 09:05:06 09:08:16 21° 93° (E) 09:11:30 437.405
CUTE-I 06 May 09:06:04 09:08:29 13° 301° (WNW) 09:10:39 437.470
CINEMA 3 06 May 09:08:22 09:11:57 20° 90° (E) 09:15:39 145.822/145.860
YUBILEINY 06 May 09:09:06 09:16:55 39° 87° (E) 09:24:54 435.215
CUBEBUG 2 06 May 09:25:32 09:28:01 14° 88° (E) 09:30:41 437.445
UWE-3 06 May 09:27:18 09:28:48 12° 86° (E) 09:30:34 435.000/436.395/437.385
DELFI C3 06 May 09:32:16 09:33:33 11° 89° (E) 09:35:03 145.870
TIGRISAT 06 May 09:33:55 09:37:10 20° 66° (ENE) 09:40:36 435.000
ZACube-1 06 May 09:35:40 09:36:43 11° 86° (E) 09:38:03 437.345
BEESAT 3 06 May 09:36:44 09:40:24 32° 245° (WSW) 09:43:59 437.485
AAUSAT CUBESAT 2 06 May 09:37:01 09:40:58 41° 98° (E) 09:44:54 437.432
UNISAT 6 06 May 09:43:10 09:46:53 25° 68° (ENE) 09:50:44 437.425
QB50P1 06 May 09:46:03 09:47:21 11° 63° (ENE) 09:48:52 145.935-145.965
BRITE-PL 06 May 09:46:31 09:51:43 46° 288° (WNW) 09:57:05 437.365/2234.400
SEEDS 06 May 09:48:44 09:52:59 84° 101° (E) 09:57:10 437.485
DOVE 4 06 May 09:50:21 09:55:41 85° 284° (WNW) 10:01:01 437.250
BEESAT 2 06 May 09:53:54 09:57:22 26° 246° (WSW) 10:00:44 435.950
ISS 06 May 09:55:23 09:57:56 20° 343° (NNW) 10:00:28 145.825
DX 1 06 May 10:01:25 10:02:00 10° 88° (E) 10:02:53 434.975-435.025
Cosmos 2491 06 May 10:04:28 10:12:51 48° 271° (W) 10:21:06 435.465 / 435.565
GOMX 1 06 May 10:11:28 10:16:31 40° 289° (WNW) 10:21:35 467.674
QB50P2 06 May 10:14:18 10:17:38 23° 68° (ENE) 10:21:04 145.880/145.840
CANX-2 06 May 10:17:51 10:21:43 34° 289° (WNW) 10:25:32 2200.000
NANOSAT C BR1 06 May 10:23:32 10:27:07 28° 69° (ENE) 10:30:47 145.865
ANTELSAT 06 May 10:24:39 10:29:15 64° 74° (ENE) 10:33:57 437.575/2403.000
CUTE 1.7 + AOD 2 06 May 10:25:10 10:28:59 32° 290° (WNW) 10:32:43 437.475
UKube-1 06 May 10:25:18 10:28:17 19° 92° (E) 10:31:25 .
AIST 2 06 May 10:30:09 10:34:02 36° 244° (WSW) 10:37:51 435.215
POPSAT HIP 1 06 May 10:32:05 10:35:54 34° 71° (ENE) 10:39:48 437.405
FUNcube-1 06 May 10:38:45 10:43:14 52° 99° (E) 10:47:36 145.935
COMPASS 1 06 May 10:40:18 10:44:02 31° 289° (WNW) 10:47:42 437.405
Oscar 11 06 May 10:40:28 10:44:50 82° 282° (WNW) 10:49:08 145.826/435.025
AISAT 06 May 10:40:35 10:43:02 15° 90° (E) 10:45:40 437.250
SO-50 06 May 10:40:46 10:44:19 20° 320° (NW) 10:47:51 436.795
AIST 1 06 May 10:40:50 10:45:09 83° 82° (E) 10:49:28
CINEMA 3 06 May 10:44:34 10:49:27 48° 288° (WNW) 10:54:13 145.822/145.860
HO-68 06 May 10:46:50 10:53:32 43° 295° (WNW) 11:00:08 435.675
DUCHIFAT 1 06 May 10:53:00 10:57:08 58° 74° (ENE) 11:01:20 145.980
50 SAT 06 May 10:58:40 11:01:50 23° 94° (E) 11:05:02 437.505
CUBEBUG 2 06 May 11:00:29 11:05:12 60° 286° (WNW) 11:09:47 437.445
UWE-3 06 May 11:01:16 11:05:57 71° 285° (WNW) 11:10:30 435.000/436.395/437.385
HUMSAT D 06 May 11:03:21 11:07:30 45° 98° (E) 11:11:36 437.325/437.525
DELFI C3 06 May 11:05:09 11:09:06 54° 286° (WNW) 11:13:00 145.870
YUBILEINY 06 May 11:05:11 11:13:39 47° 287° (WNW) 11:22:02 435.215
POLYITAN 1 06 May 11:06:56 11:11:11 88° 78° (ENE) 11:15:30 437.675
ZACube-1 06 May 11:09:07 11:13:43 73° 285° (WNW) 11:18:12 437.345
TIGRISAT 06 May 11:09:09 11:13:37 46° 262° (W) 11:18:09 435.000
AAUSAT CUBESAT 2 06 May 11:13:32 11:16:18 17° 294° (WNW) 11:18:56 437.432
QB50P1 06 May 11:18:29 11:22:42 70° 258° (WSW) 11:26:58 145.935-145.965
UNISAT 6 06 May 11:19:14 11:23:31 35° 264° (W) 11:27:49 437.425
CUBEBUG 1 06 May 11:23:52 11:27:08 21° 93° (E) 11:30:30 437.445
BUGSAT 1 06 May 11:27:42 11:31:43 80° 257° (WSW) 11:35:49 437.445
DOVE 4 06 May 11:30:29 11:32:44 12° 299° (WNW) 11:34:43 437.250
VERMONT LUNAR 06 May 11:31:11 11:33:43 21° 154° (SSE) 11:36:18 437.305
ISS 06 May 11:33:14 11:35:10 15° 3° (N) 11:37:06 145.825
DX 1 06 May 11:34:27 11:38:50 72° 286° (WNW) 11:43:12 434.975-435.025
QB50P2 06 May 11:49:37 11:53:25 31° 264° (W) 11:57:12 145.880/145.840
Oscar 19 06 May 11:49:46 11:50:56 11° 59° (ENE) 11:52:23 437.125/150
Cosmos 2504 06 May 11:50:46 11:58:49 43° 89° (E) 12:06:43 435.465 / 435.565
VELOX 1 06 May 11:52:49 11:57:18 85° 103° (ESE) 12:01:47 145.980
SPROUT 06 May 11:58:45 12:00:44 13° 89° (E) 12:02:56 437.525
NANOSAT C BR1 06 May 11:59:25 12:02:57 25° 266° (W) 12:06:27 145.865
ESTCUBE 1 06 May 12:00:00 12:04:27 57° 100° (E) 12:08:53 437.505/2401.250
UKube-1 06 May 12:00:33 12:04:37 39° 289° (WNW) 12:08:40 .
ANTELSAT 06 May 12:04:12 12:06:34 13° 272° (W) 12:08:42 437.575/2403.000
POPSAT HIP 1 06 May 12:08:42 12:11:55 20° 268° (W) 12:15:03 437.405
AISAT 06 May 12:15:38 12:20:01 53° 287° (WNW) 12:24:23 437.250
FUNcube-1 06 May 12:16:12 12:19:09 17° 295° (WNW) 12:21:55 145.935
TISAT 1 06 May 12:17:17 12:19:51 16° 91° (E) 12:22:34 437.305
RS-15 06 May 12:20:53 12:31:13 54° 113° (ESE) 12:41:53 29.354- 29.394
PHONESAT 2.4 06 May 12:25:38 12:28:14 20° 152° (SSE) 12:30:53 2401.200-2431.200
DUCHIFAT 1 06 May 12:31:39 12:33:25 12° 272° (W) 12:34:58 145.980
50 SAT 06 May 12:33:11 12:36:37 27° 290° (WNW) 12:39:58 437.505
HUMSAT D 06 May 12:40:05 12:42:55 17° 294° (WNW) 12:45:36 437.325/437.525
ITAMSAT 1 06 May 12:50:13 12:52:13 13° 60° (ENE) 12:54:30 435.822/435.867
Gurwin Techsat 1B 06 May 12:51:17 12:52:55 12° 59° (ENE) 12:54:51 435.225
PCSat 06 May 12:58:43 12:59:24 10° 32° (NNE) 13:00:17 145.827
CUBEBUG 1 06 May 12:59:34 13:03:38 36° 289° (WNW) 13:07:40 437.445
VERMONT LUNAR 06 May 13:07:30 13:10:46 58° 170° (S) 13:14:04 437.305
ISS 06 May 13:09:25 13:12:18 28° 23° (NNE) 13:15:11 145.825
ITUPSAT 1 06 May 13:17:12 13:18:28 11° 87° (E) 13:20:03 437.325
Oscar 19 06 May 13:24:21 13:29:31 79° 75° (ENE) 13:34:45 437.125/150
VELOX 1 06 May 13:32:19 13:33:16 10° 299° (WNW) 13:33:58 145.980
SPROUT 06 May 13:32:59 13:37:15 56° 286° (WNW) 13:41:30 437.525
ESTCUBE 1 06 May 13:38:17 13:40:55 15° 296° (WNW) 13:43:22 437.505/2401.250
BEESAT 06 May 13:38:25 13:41:49 20° 92° (E) 13:45:21 436.000
GONETS M04 06 May 13:40:19 13:42:26 11° 75° (ENE) 13:45:18
AO-7 06 May 13:41:32 13:45:36 15° 47° (NE) 13:50:05 29.400- 29.500
SWISSCUBE 06 May 13:42:43 13:46:30 24° 93° (E) 13:50:23 437.505
Cosmos 2504 06 May 13:43:54 13:52:17 44° 287° (WNW) 14:00:15 435.465 / 435.565
JAS-2 06 May 13:45:22 13:46:16 10° 54° (NE) 13:47:38 435.910
TISAT 1 06 May 13:51:49 13:55:55 45° 288° (WNW) 13:59:59 437.305
PHONESAT 2.4 06 May 14:02:35 14:06:03 56° 168° (SSE) 14:09:34 2401.200-2431.200
ITAMSAT 1 06 May 14:25:54 14:31:04 89° 248° (WSW) 14:36:17 435.822/435.867
Gurwin Techsat 1B 06 May 14:26:51 14:32:09 82° 77° (ENE) 14:37:31 435.225
RS-15 06 May 14:33:21 14:43:52 49° 317° (NW) 14:54:36 29.354- 29.394
PCSat 06 May 14:39:03 14:44:18 47° 54° (NE) 14:49:32 145.827
CUSAT 1 06 May 14:41:58 14:44:28 14° 79° (ENE) 14:47:36 437.405
VERMONT LUNAR 06 May 14:44:45 14:48:05 67° 186° (S) 14:51:25 437.305
ISS 06 May 14:45:37 14:48:44 44° 221° (SW) 14:51:51 145.825
ITUPSAT 1 06 May 14:52:15 14:57:02 76° 285° (WNW) 15:01:47 437.325
HORYU 2 06 May 14:54:12 14:58:02 29° 69° (ENE) 15:01:57 437.375
DANDE 06 May 14:59:15 15:01:31 14° 79° (ENE) 15:04:22 436.750
Oscar 19 06 May 15:07:22 15:09:37 12° 273° (W) 15:11:33 437.125/150
KKS-1 06 May 15:07:53 15:11:50 30° 96° (E) 15:15:48 437.445
BEESAT 06 May 15:15:23 15:19:55 44° 289° (WNW) 15:24:24 436.000
SWISSCUBE 06 May 15:20:07 15:24:29 36° 290° (WNW) 15:28:48 437.505
JAS-2 06 May 15:22:47 15:30:10 53° 71° (ENE) 15:37:01 435.910
AO-7 06 May 15:28:51 15:36:58 64° 67° (ENE) 15:45:09 29.400- 29.500
GONETS M04 06 May 15:29:06 15:37:44 66° 93° (E) 15:46:30
STARS 06 May 15:32:49 15:36:53 34° 97° (E) 15:40:58 437.465
Cosmos 2499 06 May 15:40:08 15:42:47 12° 77° (ENE) 15:46:04 435.465 / 435.565
PHONESAT 2.4 06 May 15:40:38 15:44:10 71° 184° (S) 15:47:44 2401.200-2431.200
SO-50 06 May 15:50:54 15:53:14 13° 33° (NNE) 15:55:43 436.795
Gurwin Techsat 1B 06 May 16:10:41 16:12:55 12° 273° (W) 16:14:50 435.225
ITAMSAT 1 06 May 16:10:45 16:11:26 10° 274° (W) 16:11:44 435.822/435.867
CUSAT 1 06 May 16:21:11 16:25:58 72° 282° (WNW) 16:32:28 437.405
VERMONT LUNAR 06 May 16:22:17 16:25:14 29° 202° (SSW) 16:28:11 437.305
PCSat 06 May 16:23:04 16:27:28 25° 251° (WSW) 16:31:44 145.827
HORYU 2 06 May 16:30:45 16:34:40 28° 265° (W) 16:38:31 437.375
DANDE 06 May 16:39:09 16:43:36 65° 284° (WNW) 16:49:43 436.750
